Home > Time Zones > World Clock > Weather > U.S.A. > Gary > Past weeks

Flag for U.S.A. Weather past 2 weeks in Gary, Indiana, U.S.A.

Now
33 °F

Overcast.


Feels Like: 26 °F
Forecast: 32 / 44 °F
Wind: 9 mph from Southeast

Location: Lansing Municipal Airport

Current Time: Dec 21, 2014 at 8:56:25 PM

Latest Report: Dec 21, 2014 at 8:15 PM


Visibility: 7 mi

Pressure: 30.08 "Hg

Humidity: 83%

Dew point: 29 °F

Location of GaryLocation

Historic Weather in Gary — Graph

°F

Gary temperature yesterday

Maximum temperature yesterday: 33 °F (at 11:55 AM)
Minimum temperature yesterday: 29 °F (at 6:15 AM)
Average temperature yesterday: 31 °F

Past Weeks' High & Low Weather Summary

 TemperatureHumidityPressure
High52 °F (Dec 14, 12:15 PM)100% (Dec 15, 3:55 AM)30.66 "Hg (Dec 15, 3:55 AM)
Low23 °F (Dec 12, 3:55 AM)58% (Dec 7, 1:35 PM)29.65 "Hg (Dec 16, 12:55 AM)
Average34 °F85%30.20 "Hg
* Reported Dec 6 7:15 PM — Dec 21 7:55 PM, Gary, Weather by CustomWeather, © 2014

Note: Actual official high and low records may vary slightly from our data, if they occured in-between our weather recording intervals... More about our weather records

Advertising

Gary weather history for previous 24 hours

 ConditionsComfort  
Time TempWeatherWind HumidityBarometerVisibility
7:55 PM
Dec 21
34 °FOvercast.12 mph82%30.08 "Hg7 mi
7:35 PM35 °FOvercast.10 mph81%30.09 "Hg7 mi
7:15 PM35 °FMostly cloudy.8 mph79%30.10 "Hg7 mi
6:55 PM36 °FOvercast.10 mph78%30.11 "Hg7 mi
6:15 PM36 °FOvercast.6 mph80%30.11 "Hg10 mi
5:55 PM36 °FOvercast.5 mph79%30.11 "Hg10 mi
5:35 PM35 °FOvercast.5 mph81%30.11 "Hg10 mi
5:15 PM35 °FOvercast.3 mph81%30.11 "Hg10 mi
4:55 PM35 °FPassing clouds.5 mph80%30.11 "Hg10 mi
4:15 PM35 °FPassing clouds.7 mph80%30.11 "Hg7 mi
3:15 PM36 °FOvercast.10 mph76%30.11 "Hg10 mi
2:55 PM36 °FOvercast.10 mph76%30.12 "Hg10 mi
2:35 PM36 °FOvercast.8 mph75%30.12 "Hg10 mi
2:15 PM36 °FOvercast.12 mph75%30.12 "Hg10 mi
1:55 PM36 °FOvercast.12 mph74%30.13 "Hg10 mi
1:35 PM36 °FOvercast.10 mph74%30.13 "Hg10 mi
1:15 PM36 °FOvercast.12 mph75%30.14 "Hg10 mi
12:55 PM35 °FOvercast.13 mph76%30.15 "Hg10 mi
12:15 PM34 °FOvercast.13 mph78%30.17 "Hg10 mi
11:55 AM34 °FOvercast.12 mph79%30.18 "Hg10 mi
11:15 AM33 °FMore clouds than sun.14 mph80%30.20 "Hg10 mi
10:55 AM33 °FOvercast.12 mph82%30.21 "Hg7 mi
10:35 AM33 °FOvercast.8 mph82%30.22 "Hg7 mi
10:15 AM32 °FOvercast.10 mph82%30.23 "Hg7 mi
9:55 AM32 °FOvercast.9 mph83%30.23 "Hg7 mi
9:15 AM32 °FOvercast.12 mph83%30.23 "Hg7 mi
8:55 AM32 °FOvercast.9 mph83%30.24 "Hg7 mi
8:35 AM32 °FOvercast.9 mph83%30.24 "Hg7 mi
8:15 AM32 °FOvercast.9 mph84%30.24 "Hg7 mi
7:55 AM32 °FOvercast.6 mph83%30.24 "Hg7 mi
7:35 AM32 °FOvercast.7 mph83%30.24 "Hg10 mi
7:15 AM32 °FOvercast.5 mph82%30.24 "Hg10 mi
6:55 AM32 °FOvercast.8 mph82%30.24 "Hg10 mi
6:15 AM32 °FOvercast.7 mph82%30.24 "Hg10 mi
5:15 AM32 °FOvercast.5 mph82%30.24 "Hg10 mi
4:55 AM32 °FOvercast.7 mph82%30.24 "Hg10 mi
4:35 AM32 °FMostly cloudy.7 mph82%30.24 "Hg10 mi
4:15 AM32 °FOvercast.6 mph82%30.24 "Hg10 mi
3:55 AM32 °FOvercast.8 mph82%30.24 "Hg10 mi
3:35 AM32 °FMostly cloudy.8 mph82%30.25 "Hg10 mi
3:15 AM32 °FMostly cloudy.7 mph82%30.25 "Hg10 mi
2:55 AM32 °FOvercast.8 mph82%30.26 "Hg10 mi
2:35 AM32 °FOvercast.7 mph82%30.26 "Hg10 mi
2:15 AM32 °FOvercast.6 mph82%30.26 "Hg10 mi
1:55 AM32 °FOvercast.6 mph83%30.26 "Hg10 mi
1:35 AM32 °FOvercast.6 mph83%30.26 "Hg10 mi
1:15 AM32 °FOvercast.6 mph83%30.26 "Hg10 mi
12:55 AM32 °FOvercast.6 mph83%30.26 "Hg10 mi
12:35 AM32 °FOvercast.7 mph83%30.26 "Hg10 mi
12:15 AM32 °FOvercast.6 mph83%30.26 "Hg7 mi
11:55 PM
Dec 20
32 °FOvercast.6 mph83%30.26 "Hg7 mi
11:35 PM32 °FOvercast.5 mph83%30.26 "Hg7 mi
11:15 PM32 °FOvercast.6 mph83%30.26 "Hg7 mi
10:55 PM32 °FOvercast.6 mph83%30.26 "Hg10 mi
10:15 PM32 °FOvercast.6 mph83%30.26 "Hg10 mi
9:55 PM32 °FMostly cloudy.5 mph83%30.27 "Hg10 mi
9:35 PM32 °FMostly cloudy.5 mph82%30.27 "Hg10 mi
9:15 PM32 °FOvercast.6 mph83%30.27 "Hg10 mi
8:55 PM32 °FOvercast.5 mph83%30.27 "Hg10 mi
8:15 PM31 °FOvercast.3 mph84%30.28 "Hg10 mi
Weather by CustomWeather, © 2014

See weather overviewHow to use our weather pages